Location: Unspecified
(0.0000°N, 0.0000°E)
Time: 23:50:20
(UTC+00:00)

ISS - Pass Details

Date: 14 July 2019
Orbit: 409 x 418 km, 51.6° (Epoch: 23 July)

Event Time Altitude Azimuth Distance (km) Brightness Sun altitude
Rises 19:17:55 0° 213° (SSW) 2,356 0.2 -16.7°
Reaches altitude 10° 19:20:01 10° 212° (SSW) 1,490 -0.9 -17.2°
Maximum altitude 19:23:21 77° 126° (SE) 429 -4.0 -17.9°
Enters shadow 19:24:50 30° 44° (NE) 763 -2.7 -18.3°
